[[{"header":{"parameterUnit":"m.s-1","parameterCategory":1,"la1":30.2991,"la2":30.254,"lo1":-89.0895,"lo2":-89.0444,"dy":0.0017,"dx":0.0017,"nx":28,"ny":28,"refTime":"2025-04-15T09:00:00:Z","depth":0,"parameterNumber":2,"parameterNumberName":"U-component_of_WINDS"},"data":[0,0,0,0,0,0,0,0,0,0,0,0,0,0,0,0,0,0,0,0,0,0,0,0,0,0,0,0,0,0,0,0,0,0,0,0,0,0,0,0,0,0,0,0,0,0,0,0,0,0,0,0,0,0,0,0,0,0,-0.2331,-0.233,0,-0.2256,-0.2255,-0.2255,-0.2242,-0.2243,-0.2243,-0.2244,-0.2164,-0.2161,-0.2158,0,0,0,0,0,0,0,0,0,0,0,0,0,-0.2456,-0.2454,-0.2331,-0.233,-0.2329,-0.2256,-0.2255,-0.2254,-0.2242,-0.2243,-0.2244,-0.2244,-0.2165,-0.2161,-0.2158,0,0,0,0,0,0,0,0,0,0,0,0,0,-0.2394,-0.2453,-0.2331,-0.2314,-0.2312,-0.2257,-0.2255,-0.2254,-0.2242,-0.2243,-0.2244,-0.2245,-0.2166,-0.2162,-0.2158,-0.2113,0,0,-0.2145,-0.2143,0,0,0,0,0,0,0,0,-0.2397,-0.2389,-0.2318,-0.2315,-0.2313,-0.226,-0.227,-0.2206,-0.2242,-0.2268,-0.2244,-0.2245,-0.2194,-0.2188,-0.2172,-0.2109,-0.2105,-0.2145,-0.2142,-0.214,-0.2139,0,0,0,0,0,0,0,-0.2401,-0.2392,-0.2301,-0.2317,-0.2313,-0.2308,-0.23,-0.2258,-0.2227,-0.2266,-0.2265,-0.2257,-0.2193,-0.2176,-0.217,-0.2104,-0.2145,-0.2141,-0.2138,-0.2137,-0.1995,-0.1994,0,0,0,0,0,0,-0.241,-0.2396,-0.2304,-0.2299,-0.2358,-0.2305,-0.2297,-0.2276,-0.2227,-0.2221,-0.2256,-0.2256,-0.2182,-0.2175,-0.2167,-0.2108,-0.214,-0.2136,-0.2134,-0.1997,-0.1995,-0.1994,0,0,0,0,0,0,-0.2412,-0.2401,-0.2307,-0.2347,-0.2335,-0.2302,-0.2279,-0.2274,-0.2256,-0.222,-0.2213,-0.2244,-0.2183,-0.2173,-0.2125,-0.2105,-0.2135,-0.2131,-0.1998,-0.1996,-0.1994,-0.1991,0,0,0,0,0,0,-0.2416,-0.2403,-0.2387,-0.2347,-0.2333,-0.2268,-0.2277,-0.2271,-0.225,-0.2249,-0.2207,-0.2201,-0.2183,-0.2132,-0.2121,-0.21,-0.2128,-0.2,-0.1997,-0.1995,-0.1993,-0.1989,-0.1986,0,0,0,0,0,-0.242,-0.2389,-0.2386,-0.2375,-0.2312,-0.2267,-0.2259,-0.224,-0.2248,-0.223,-0.2206,-0.2202,-0.2109,-0.2127,-0.2115,-0.2092,-0.2001,-0.1998,-0.1995,-0.1994,-0.199,-0.1986,0,0,0,0,0,0,-0.2427,-0.2384,-0.238,-0.2335,-0.2305,-0.2265,-0.2243,-0.2237,-0.2203,-0.2204,-0.2181,-0.2171,-0.2124,-0.2104,-0.2124,-0.2044,-0.2055,-0.205,-0.2059,-0.2054,-0.2051,-0.2056,-0.2124,0,0,0,0,0,-0.2423,-0.2392,-0.2355,-0.2319,-0.2304,-0.2276,-0.2256,-0.2244,-0.2211,-0.2198,-0.217,-0.2137,-0.21,-0.2076,-0.2041,-0.199,-0.1978,-0.1968,-0.1965,-0.1962,-0.1957,-0.1924,-0.1918,-0.1984,-0.1984,-0.1984,0,0,-0.2415,-0.2387,-0.2369,-0.2319,-0.2294,-0.226,-0.2265,-0.223,-0.2203,-0.2192,-0.2145,-0.2123,-0.2085,-0.2035,-0.2011,-0.2016,-0.1936,-0.1959,-0.1957,-0.1953,-0.1921,-0.1915,-0.1909,-0.1982,-0.1983,-0.1983,0,0,-0.2381,-0.2359,-0.2325,-0.2299,-0.2262,-0.2243,-0.2235,-0.2195,-0.2181,-0.2134,-0.2123,-0.209,-0.2028,-0.2,-0.1977,-0.193,-0.1923,-0.1919,-0.1901,-0.1869,-0.1864,-0.1859,-0.1839,-0.1832,-0.1915,-0.1915,-0.1915,0,-0.2375,-0.2325,-0.2307,-0.2271,-0.2247,-0.2237,-0.22,-0.2176,-0.2128,-0.2111,-0.2118,-0.2037,-0.201,-0.1951,-0.1939,-0.1923,-0.1909,-0.1923,-0.1867,-0.1862,-0.1857,-0.1837,-0.183,-0.1914,-0.1914,-0.1914,-0.1914,0,-0.2317,-0.2282,-0.2258,-0.2213,-0.2187,-0.2151,-0.2125,-0.21,-0.209,-0.2069,-0.2019,-0.1987,-0.1942,-0.1928,-0.1918,-0.1866,-0.1869,-0.1872,-0.1883,-0.185,-0.1831,-0.1823,-0.1913,-0.1913,-0.1914,-0.1914,0,0,-0.2287,-0.223,-0.2221,-0.2199,-0.2156,-0.2127,-0.2088,-0.2045,-0.2023,-0.199,-0.1954,-0.1901,-0.1901,-0.1876,-0.1862,-0.1835,-0.1794,-0.1839,-0.1838,-0.1829,-0.173,-0.1727,-0.1718,-0.179,-0.1789,-0.1787,-0.1732,0,-0.2246,-0.2179,-0.216,-0.2102,-0.2066,-0.2054,-0.202,-0.1988,-0.1967,-0.1932,-0.1909,-0.187,-0.1876,-0.1859,-0.1832,-0.1805,-0.1773,-0.1809,-0.1753,-0.1752,-0.1761,-0.1709,-0.1706,-0.1656,-0.1725,-0.1724,-0.1723,0,-0.219,-0.2155,-0.2094,-0.2051,-0.2036,-0.2006,-0.1963,-0.1931,-0.1893,-0.1879,-0.1849,-0.1837,-0.1793,-0.1807,-0.1744,-0.1768,-0.1744,-0.1727,-0.1725,-0.1717,-0.1734,-0.1696,-0.1639,-0.1631,-0.1711,-0.1712,-0.1713,0,-0.2169,-0.2108,-0.2062,-0.2043,-0.1994,-0.1972,-0.195,-0.1913,-0.1887,-0.1849,-0.1831,-0.1789,-0.1765,-0.173,-0.1705,-0.1719,-0.1642,-0.1656,-0.1627,-0.1627,-0.161,-0.1611,-0.1545,-0.1599,-0.1599,-0.16,-0.16,0,-0.2125,-0.2086,-0.2051,-0.2023,-0.1978,-0.1956,-0.1912,-0.1889,-0.1855,-0.182,-0.1807,-0.1773,-0.1744,-0.1705,-0.1686,-0.1633,-0.1624,-0.1609,-0.1603,-0.1608,-0.161,-0.159,-0.1592,-0.1598,-0.1598,-0.1598,-0.1599,0,-0.2094,-0.207,-0.2018,-0.1975,-0.1963,-0.1931,-0.1893,-0.1863,-0.1841,-0.1796,-0.1784,-0.1749,-0.1702,-0.1674,-0.1616,-0.1602,-0.1543,-0.1541,-0.1556,-0.1553,-0.1524,-0.1526,-0.1441,-0.1427,-0.1494,-0.1494,-0.1493,0,-0.2066,-0.2036,-0.1989,-0.1965,-0.1942,-0.1904,-0.1877,-0.1853,-0.1825,-0.1777,-0.1752,-0.1705,-0.1666,-0.1592,-0.1559,-0.1513,-0.1507,-0.1481,-0.15,-0.1504,-0.1502,-0.1503,-0.1498,-0.1477,-0.1476,-0.1476,-0.1475,0,-0.2017,-0.2006,-0.1969,-0.1926,-0.1894,-0.186,-0.1825,-0.1805,-0.1774,-0.1743,-0.1695,-0.1665,-0.1604,-0.1556,-0.1506,-0.1481,-0.1471,-0.147,-0.146,-0.1463,-0.1471,-0.1462,-0.1544,-0.1471,-0.1472,-0.1472,-0.1472,-0.1472,-0.1985,-0.1956,-0.1917,-0.1875,-0.1846,-0.1813,-0.1781,-0.1755,-0.1716,-0.1665,-0.1653,-0.1601,-0.156,-0.1493,-0.1465,-0.1423,-0.1427,-0.1414,-0.141,-0.1406,-0.1403,-0.148,-0.1414,-0.1414,-0.1415,-0.1415,-0.1415,0,-0.1932,-0.1907,-0.1868,-0.1819,-0.1784,-0.178,-0.174,-0.1711,-0.1667,-0.163,-0.1591,-0.1534,-0.1486,-0.1449,-0.1399,-0.1372,-0.1366,-0.1359,-0.136,-0.1353,-0.1404,-0.1416,-0.1365,-0.1365,-0.1365,-0.1365,-0.1365,-0.1365,-0.1901,-0.1851,-0.1834,-0.1768,-0.1742,-0.1692,-0.1669,-0.1637,-0.1607,-0.1544,-0.1504,-0.1481,-0.1442,-0.1389,-0.1344,-0.1334,-0.1314,-0.1308,-0.1296,-0.1345,-0.135,-0.1355,-0.1366,-0.1305,-0.1304,-0.1248,-0.1247,-0.1247]},{"header":{"parameterUnit":"m.s-1","parameterCategory":1,"la1":30.2991,"la2":30.254,"lo1":-89.0895,"lo2":-89.0444,"dy":0.0017,"dx":0.0017,"nx":28,"ny":28,"refTime":"2025-04-15T09:00:00:Z","depth":0,"parameterNumber":3,"parameterNumberName":"V-component_of_WINDS"},"data":[0,0,0,0,0,0,0,0,0,0,0,0,0,0,0,0,0,0,0,0,0,0,0,0,0,0,0,0,0,0,0,0,0,0,0,0,0,0,0,0,0,0,0,0,0,0,0,0,0,0,0,0,0,0,0,0,0,0,-4.1491,-4.1491,0,-4.1507,-4.1507,-4.1507,-4.1564,-4.1565,-4.1567,-4.1568,-4.1577,-4.1576,-4.1575,0,0,0,0,0,0,0,0,0,0,0,0,0,-4.1505,-4.1504,-4.1491,-4.1491,-4.1491,-4.1507,-4.1507,-4.1507,-4.1564,-4.1565,-4.1567,-4.1568,-4.1577,-4.1576,-4.1575,0,0,0,0,0,0,0,0,0,0,0,0,0,-4.1507,-4.1504,-4.1491,-4.1521,-4.1524,-4.1507,-4.1507,-4.1507,-4.1563,-4.1565,-4.1567,-4.1569,-4.1577,-4.1576,-4.1575,-4.1526,0,0,-4.157,-4.1569,0,0,0,0,0,0,0,0,-4.1507,-4.1507,-4.1517,-4.1519,-4.1523,-4.1536,-4.1515,-4.1513,-4.1563,-4.1548,-4.1568,-4.157,-4.1561,-4.1561,-4.1559,-4.1527,-4.1527,-4.157,-4.1569,-4.1568,-4.1568,0,0,0,0,0,0,0,-4.1507,-4.1506,-4.1497,-4.1517,-4.152,-4.1533,-4.1536,-4.1515,-4.1543,-4.155,-4.1554,-4.1556,-4.1563,-4.1561,-4.156,-4.1527,-4.157,-4.1569,-4.1568,-4.1567,-4.146,-4.1458,0,0,0,0,0,0,-4.1503,-4.1506,-4.1496,-4.1497,-4.152,-4.1531,-4.1534,-4.1529,-4.1544,-4.1548,-4.1554,-4.1558,-4.1562,-4.1562,-4.1561,-4.1508,-4.1568,-4.1567,-4.1566,-4.1461,-4.1459,-4.1457,0,0,0,0,0,0,-4.1503,-4.1502,-4.1496,-4.1503,-4.1503,-4.1529,-4.1523,-4.1529,-4.1527,-4.1547,-4.1551,-4.1547,-4.1564,-4.1563,-4.1536,-4.1509,-4.1566,-4.1565,-4.1464,-4.1461,-4.1458,-4.1399,0,0,0,0,0,0,-4.1503,-4.1501,-4.1484,-4.1502,-4.1503,-4.1471,-4.1521,-4.1527,-4.1525,-4.153,-4.1541,-4.1545,-4.1565,-4.1538,-4.1534,-4.1508,-4.1564,-4.1466,-4.1462,-4.1459,-4.1404,-4.1395,-4.1387,0,0,0,0,0,-4.1504,-4.1464,-4.1483,-4.1481,-4.1481,-4.147,-4.147,-4.1496,-4.1522,-4.1505,-4.1519,-4.1545,-4.1512,-4.1534,-4.1531,-4.1503,-4.1468,-4.1464,-4.1459,-4.1408,-4.1397,-4.1387,0,0,0,0,0,0,-4.1438,-4.1467,-4.1488,-4.1453,-4.1459,-4.1479,-4.1458,-4.1483,-4.1479,-4.1484,-4.1515,-4.1517,-4.1486,-4.1492,-4.1516,-4.146,-4.1495,-4.149,-4.1457,-4.1446,-4.1438,-4.1437,-4.1563,0,0,0,0,0,-4.142,-4.141,-4.1435,-4.1402,-4.1405,-4.1431,-4.1426,-4.1447,-4.1453,-4.1455,-4.1466,-4.147,-4.1461,-4.1454,-4.1446,-4.1405,-4.141,-4.1385,-4.1377,-4.137,-4.1364,-4.1346,-4.1336,-4.1442,-4.1442,-4.1442,0,0,-4.1381,-4.1396,-4.1387,-4.139,-4.1397,-4.1385,-4.1432,-4.1416,-4.1408,-4.1452,-4.1429,-4.1437,-4.1443,-4.141,-4.1396,-4.1414,-4.1337,-4.1364,-4.1358,-4.1357,-4.1341,-4.1331,-4.1322,-4.1439,-4.144,-4.144,0,0,-4.1306,-4.1316,-4.1292,-4.1299,-4.1311,-4.1329,-4.1323,-4.1341,-4.135,-4.1328,-4.1362,-4.1351,-4.1334,-4.1338,-4.1338,-4.127,-4.1294,-4.1266,-4.1222,-4.1204,-4.1195,-4.1188,-4.1166,-4.1157,-4.1261,-4.1261,-4.1261,0,-4.1256,-4.1242,-4.1275,-4.1259,-4.126,-4.1303,-4.1279,-4.1283,-4.129,-4.1289,-4.1311,-4.1294,-4.13,-4.127,-4.1254,-4.1252,-4.1247,-4.1264,-4.1194,-4.1188,-4.1181,-4.116,-4.1151,-4.1257,-4.1258,-4.1258,-4.1259,0,-4.1181,-4.1171,-4.1149,-4.116,-4.1158,-4.1138,-4.1167,-4.1161,-4.1183,-4.1199,-4.1177,-4.1188,-4.1185,-4.118,-4.1198,-4.1153,-4.1165,-4.1189,-4.1225,-4.1167,-4.1148,-4.114,-4.1253,-4.1254,-4.1255,-4.1256,0,0,-4.1061,-4.1095,-4.1086,-4.1094,-4.1112,-4.1104,-4.1086,-4.1087,-4.1082,-4.1086,-4.1073,-4.106,-4.1085,-4.1085,-4.1105,-4.1089,-4.1038,-4.1117,-4.1117,-4.1103,-4.0991,-4.0973,-4.0963,-4.1055,-4.1053,-4.1052,-4.0991,0,-4.0991,-4.0966,-4.0997,-4.0964,-4.0956,-4.0999,-4.0984,-4.0994,-4.1009,-4.1004,-4.102,-4.1012,-4.1044,-4.1045,-4.1031,-4.1047,-4.1016,-4.1051,-4.1042,-4.1041,-4.104,-4.0952,-4.0932,-4.0873,-4.0983,-4.0982,-4.0981,0,-4.0905,-4.0911,-4.0878,-4.0903,-4.0901,-4.0887,-4.0892,-4.0887,-4.0899,-4.0911,-4.0914,-4.094,-4.0925,-4.0961,-4.094,-4.0964,-4.0962,-4.097,-4.0968,-4.0968,-4.1008,-4.0951,-4.0855,-4.0847,-4.0969,-4.097,-4.0971,0,-4.0823,-4.0822,-4.0804,-4.0808,-4.0836,-4.0826,-4.0836,-4.0851,-4.0851,-4.0855,-4.0855,-4.0856,-4.0856,-4.0856,-4.0883,-4.0906,-4.0859,-4.0897,-4.0869,-4.0869,-4.0857,-4.0857,-4.076,-4.0854,-4.0854,-4.0855,-4.0855,0,-4.0742,-4.072,-4.0768,-4.0757,-4.0735,-4.0771,-4.0748,-4.0763,-4.0776,-4.0768,-4.0804,-4.0796,-4.0831,-4.0825,-4.0845,-4.0827,-4.0826,-4.0836,-4.0841,-4.0833,-4.0832,-4.0832,-4.0837,-4.0852,-4.0853,-4.0853,-4.0854,0,-4.0646,-4.0677,-4.066,-4.069,-4.0697,-4.068,-4.0705,-4.0695,-4.0715,-4.0705,-4.0704,-4.0734,-4.0731,-4.0758,-4.0757,-4.0771,-4.0743,-4.0755,-4.074,-4.0744,-4.0716,-4.0718,-4.0616,-4.0605,-4.0705,-4.0704,-4.0703,0,-4.0592,-4.0578,-4.0608,-4.0607,-4.0617,-4.0614,-4.0616,-4.0652,-4.0652,-4.0668,-4.0656,-4.0657,-4.0659,-4.0651,-4.0672,-4.0673,-4.0686,-4.065,-4.0686,-4.0679,-4.0687,-4.0688,-4.0688,-4.0642,-4.0641,-4.064,-4.0639,0,-4.0494,-4.0512,-4.0514,-4.0523,-4.0526,-4.0533,-4.0543,-4.054,-4.0579,-4.0577,-4.0576,-4.0578,-4.0582,-4.0582,-4.0588,-4.0598,-4.0625,-4.0628,-4.0622,-4.0613,-4.0606,-4.0612,-4.072,-4.063,-4.0631,-4.0632,-4.0632,-4.0633,-4.0419,-4.041,-4.0431,-4.0433,-4.0446,-4.0456,-4.045,-4.0471,-4.0472,-4.048,-4.05,-4.0496,-4.0512,-4.0524,-4.0532,-4.0529,-4.0546,-4.0536,-4.0534,-4.0531,-4.0527,-4.0607,-4.0529,-4.053,-4.053,-4.053,-4.053,0,-4.0324,-4.0341,-4.0344,-4.0359,-4.0362,-4.0391,-4.0405,-4.0405,-4.0402,-4.0415,-4.0419,-4.0419,-4.0421,-4.0444,-4.0448,-4.0441,-4.0454,-4.0441,-4.0442,-4.0444,-4.0511,-4.0516,-4.0431,-4.0431,-4.0431,-4.0431,-4.0431,-4.0431,-4.0275,-4.0262,-4.0283,-4.0277,-4.0294,-4.0293,-4.0299,-4.0308,-4.032,-4.032,-4.0323,-4.034,-4.0358,-4.0364,-4.0367,-4.0374,-4.0374,-4.0357,-4.0368,-4.0429,-4.0439,-4.0448,-4.0454,-4.0357,-4.0357,-4.0302,-4.0302,-4.0301]}]]